Timestamp (UTC),Temp / °C,Chill / °C,HIndex / °C,Humid%,Dewpt / °C,Wind / ms¯¹,HiWind / ms¯¹,Winddir / °,Rain / mm,RainRate / mmhr¯¹,Pressure / hPa,InsideTemp / °C,InsideHumid%,Radiation / Wm¯²,UV
2017-07-19 00:00:00,14.9,14.9,14.9,89.0,13.1,1.3,3.6,89.6639901427188,0.0,0.0,1003.5,21.6,55.0,0,0
2017-07-19 00:05:00,14.9,14.9,14.9,89.0,13.1,1.3,4.0,104.128121912838,0.0,0.0,1003.4,21.6,55.2,0,0
2017-07-19 00:10:00,14.9,14.9,14.9,89.0,13.1,1.4,4.0,97.2345305079246,0.0,0.0,1003.4,21.6,55.4,0,0
2017-07-19 00:15:00,14.9,14.9,14.9,89.0,13.1,1.6,4.0,91.5204935692688,0.0,0.0,1003.3,21.6,55.0,0,0
2017-07-19 00:20:00,14.9,14.9,14.9,89.0,13.1,1.2,4.0,106.789202659889,0.0,0.0,1003.3,21.6,55.2,0,0
2017-07-19 00:25:00,14.9,14.9,14.9,90.0,13.3,1.6,4.0,89.6005602832161,0.0,0.0,1003.2,21.6,56.0,0,0
2017-07-19 00:30:00,14.9,14.9,14.9,90.0,13.3,1.7,3.6,76.3202859824315,0.0,0.0,1003.2,21.6,56.0,0,0
2017-07-19 00:35:00,14.9,14.9,14.9,90.0,13.3,1.3,3.6,88.1489700391183,0.0,0.0,1003.2,21.6,56.0,0,0
2017-07-19 00:40:00,14.9,14.9,14.9,90.0,13.3,1.4,3.6,77.8904279068686,0.0,0.0,1003.1,21.6,56.0,0,0
2017-07-19 00:45:00,14.9,14.9,14.9,90.0,13.3,1.6,3.6,83.972880842553,0.0,0.0,1003.0,21.6,56.0,0,0
2017-07-19 00:50:00,14.9,14.9,14.9,90.0,13.3,1.2,3.6,81.7335143815413,0.0,0.0,1002.9,21.5,56.4,0,0
2017-07-19 00:55:00,14.9,14.9,14.9,90.0,13.3,1.0,3.1,85.8723511561054,0.0,0.0,1002.8,21.5,56.0,0,0
2017-07-19 01:00:00,14.9,14.9,14.9,90.0,13.3,1.3,3.1,71.4604520331114,0.0,0.0,1002.8,21.5,56.6,0,0
2017-07-19 01:05:00,14.9,14.9,14.9,90.0,13.3,1.3,3.6,98.420322056036,0.0,0.0,1002.7,21.5,56.2,0,0
2017-07-19 01:10:00,15.0,15.0,15.0,90.0,13.3,1.9,4.0,95.6059418543768,0.0,0.0,1002.6,21.5,56.6,0,0
2017-07-19 01:15:00,15.0,15.0,15.0,90.0,13.4,1.7,4.5,77.2202756767332,0.0,0.0,1002.5,21.5,57.0,0,0
2017-07-19 01:20:00,15.0,15.0,15.0,90.0,13.4,1.8,4.5,81.5692940984313,0.0,0.0,1002.4,21.5,57.0,0,0
2017-07-19 01:25:00,15.0,15.0,15.0,90.0,13.4,1.5,4.5,78.5051053024688,0.0,0.0,1002.2,21.5,57.0,0,0
2017-07-19 01:30:00,15.0,15.0,15.0,90.0,13.4,1.2,3.6,72.9178239690827,0.0,0.0,1002.1,21.5,57.0,0,0
2017-07-19 01:35:00,15.0,15.0,15.0,90.0,13.4,1.7,3.6,77.1998703644924,0.0,0.0,1002.0,21.5,57.0,0,0
2017-07-19 01:40:00,15.0,15.0,15.0,90.0,13.4,1.1,4.0,84.0319789257097,0.0,0.0,1002.0,21.5,57.0,0,0
2017-07-19 01:45:00,15.1,15.1,15.1,90.0,13.4,1.5,4.0,84.8990991425763,0.0,0.0,1001.9,21.5,57.0,0,0
2017-07-19 01:50:00,15.0,15.0,15.0,90.2,13.5,1.7,4.5,82.8982312413464,0.0,0.0,1001.7,21.5,57.0,0,0
2017-07-19 01:55:00,15.0,15.0,15.0,91.0,13.5,1.0,4.5,70.4059435383239,0.0,0.0,1001.7,21.5,57.0,0,0
2017-07-19 02:00:00,15.0,15.0,15.0,91.0,13.5,0.7,3.6,42.6520557844127,0.0,0.0,1001.6,21.5,57.2,0,0
2017-07-19 02:05:00,15.0,15.0,15.0,91.0,13.6,1.0,3.6,87.4301860808951,0.0,0.0,1001.6,21.5,57.0,0,0
2017-07-19 02:10:00,15.0,15.0,15.0,91.0,13.6,1.7,4.5,90.1849110226351,0.0,0.0,1001.6,21.5,58.0,0,0
2017-07-19 02:15:00,15.0,15.0,15.0,91.0,13.5,1.2,4.9,97.8275558568557,0.0,0.0,1001.6,21.4,57.4,0,0
2017-07-19 02:20:00,15.0,15.0,15.0,91.0,13.5,1.9,4.9,96.3488413235389,0.0,0.0,1001.6,21.4,58.0,0,0
2017-07-19 02:25:00,15.0,15.0,15.0,91.0,13.5,1.1,4.9,83.1164288624337,0.0,0.0,1001.6,21.4,58.0,0,0
2017-07-19 02:30:00,15.0,15.0,15.0,91.0,13.5,1.4,4.0,78.8439201936532,0.0,0.0,1001.5,21.4,58.0,0,0
2017-07-19 02:35:00,15.0,15.0,15.0,91.0,13.5,1.6,4.0,92.2605992870516,0.0,0.0,1001.4,21.4,58.0,0,0
2017-07-19 02:40:00,15.0,15.0,15.0,91.0,13.5,1.1,3.6,71.520313374082,0.0,0.0,1001.2,21.4,58.0,0,0
2017-07-19 02:45:00,15.0,15.0,15.0,91.0,13.5,1.8,4.5,87.4017665116195,0.0,0.0,1001.0,21.4,58.0,0,0
2017-07-19 02:50:00,15.0,15.0,15.0,91.0,13.5,2.3,4.9,81.9137648985408,0.0,0.0,1000.9,21.4,58.0,0,0
2017-07-19 02:55:00,15.0,15.0,15.0,91.3,13.6,1.6,4.9,104.086499987028,0.0,0.0,1000.9,21.3,58.0,0,0
2017-07-19 03:00:00,15.0,15.0,15.0,92.0,13.7,1.8,4.0,81.8079376144566,0.0,0.0,1000.9,21.3,58.0,0,0
2017-07-19 03:05:00,15.0,15.0,15.0,92.0,13.7,1.6,4.0,86.2992976281642,0.0,0.0,1000.8,21.4,58.0,0,0
2017-07-19 03:10:00,15.0,15.0,15.0,92.0,13.7,1.3,4.0,83.6252461060891,0.0,0.0,1000.8,21.3,58.0,0,0
2017-07-19 03:15:00,15.0,15.0,15.0,92.0,13.7,1.3,3.1,94.5056956320532,0.0,0.0,1000.7,21.4,58.4,0,0
2017-07-19 03:20:00,15.0,15.0,15.0,92.0,13.7,1.8,3.6,100.243899207555,0.0,0.0,1000.8,21.3,58.4,0,0
2017-07-19 03:25:00,15.0,15.0,15.0,92.0,13.8,1.6,4.0,76.1919370413298,0.0,0.0,1000.6,21.4,58.2,0,0
2017-07-19 03:30:00,15.0,15.0,15.0,92.0,13.7,1.4,4.0,75.2545388570109,0.0,0.0,1000.5,21.4,58.2,0,0
2017-07-19 03:35:00,15.1,15.1,15.1,92.0,13.8,0.5,4.0,63.2305668962184,0.0,0.0,1000.5,21.4,58.6,0,0
2017-07-19 03:40:00,15.1,15.1,15.1,92.0,13.8,1.3,3.1,82.8975476156872,0.0,0.0,1000.4,21.4,58.8,0,0
2017-07-19 03:45:00,15.1,15.1,15.1,92.0,13.8,1.6,4.0,92.9243943791499,0.0,0.0,1000.4,21.4,59.0,0,0
2017-07-19 03:50:00,15.1,15.1,15.1,92.0,13.8,1.4,4.0,68.1715744303662,0.0,0.0,1000.2,21.4,59.0,0,0
2017-07-19 03:55:00,15.2,15.2,15.2,92.0,13.9,1.1,3.6,86.6249477818178,0.0,0.0,1000.2,21.4,59.0,0,0
2017-07-19 04:00:00,15.2,15.2,15.2,92.0,13.9,1.4,4.0,74.4522914218176,0.0,0.0,1000.2,21.4,59.0,0,0
2017-07-19 04:05:00,15.2,15.2,15.2,92.0,13.9,0.9,2.7,67.5,0.0,0.0,999.9,21.4,59.0,0,0
2017-07-19 04:15:00,15.2,15.2,15.2,92.2,14.0,1.3,3.6,102.594799201095,0.0,0.0,999.9,21.4,59.2,0,0
2017-07-19 04:20:00,15.3,15.3,15.3,92.1,14.0,1.2,3.6,83.2673068760049,0.0,0.0,1000.0,21.4,59.0,0,0
2017-07-19 04:25:00,15.3,15.3,15.3,92.0,14.0,1.2,3.6,81.8907426206083,0.0,0.0,999.8,21.4,59.4,0,0
2017-07-19 04:30:00,15.3,15.3,15.3,92.0,14.0,0.7,3.6,17.4110357793767,0.0,0.0,999.7,21.4,59.4,0,0
2017-07-19 04:35:00,15.3,15.3,15.3,92.8,14.2,1.0,2.7,101.730881519676,0.0,0.0,999.5,21.4,59.2,0,0
2017-07-19 04:40:00,15.3,15.3,15.3,93.0,14.2,1.4,3.1,90.9131007772908,0.0,0.0,999.5,21.4,59.8,0,0
2017-07-19 04:45:00,15.4,15.4,15.4,93.0,14.3,1.1,3.1,82.9147288143045,0.0,0.0,999.5,21.4,60.0,0,0
2017-07-19 04:50:00,15.4,15.4,15.4,93.0,14.3,1.4,4.0,81.5064935481077,0.0,0.0,999.4,21.4,60.0,4.12751677852349,0
2017-07-19 04:55:00,15.4,15.4,15.4,93.0,14.3,1.7,4.0,87.230181445861,0.0,0.0,999.3,21.4,59.8,6.24832214765101,0
2017-07-19 05:00:00,15.5,15.5,15.5,93.0,14.3,1.6,4.5,94.4944519509542,0.0,0.0,999.3,21.4,60.0,8.87919463087248,0
2017-07-19 05:05:00,15.5,15.5,15.5,93.0,14.4,1.2,4.5,67.5753097461477,0.0,0.0,999.3,21.4,60.0,11.5838926174497,0
2017-07-19 05:10:00,15.5,15.5,15.5,92.9,14.4,0.9,4.0,90.9726674131767,0.0,0.0,999.3,21.4,60.0,10.241610738255,0
2017-07-19 05:15:00,15.6,15.6,15.6,92.3,14.3,2.2,4.9,76.8442624786971,0.0,0.0,999.2,21.4,60.6,11.1879194630872,0
2017-07-19 05:20:00,15.6,15.6,15.6,92.0,14.3,1.8,4.9,84.3568872310747,0.0,0.0,999.2,21.4,61.0,12.9664429530201,0
2017-07-19 05:25:00,15.6,15.6,15.6,92.0,14.3,1.3,4.5,70.3403487155085,0.0,0.0,999.1,21.3,61.0,20.7651006711409,0
2017-07-19 05:30:00,15.7,15.7,15.7,92.0,14.4,1.0,3.6,81.3786882484625,0.0,0.0,998.9,21.3,61.0,20.3288590604027,0
2017-07-19 05:35:00,15.7,15.7,15.7,92.0,14.4,1.3,2.7,70.1530607226926,0.0,0.0,998.7,21.4,61.0,21.1192052980132,0
2017-07-19 05:40:00,15.7,15.7,15.7,92.0,14.4,1.1,4.5,68.6141219346925,0.0,0.0,998.4,21.4,61.0,22.2348993288591,0
2017-07-19 05:45:00,15.7,15.7,15.7,92.0,14.5,1.2,4.5,64.094836934269,0.0,0.0,998.2,21.4,61.0,34.1390728476821,0
2017-07-19 05:50:00,15.8,15.8,15.8,92.0,14.5,1.4,4.5,63.1337128052168,0.0,0.0,998.3,21.4,61.0,36.7682119205298,0
2017-07-19 05:55:00,15.8,15.8,15.8,92.0,14.5,1.1,3.6,93.1447309679865,0.0,0.0,998.3,21.4,61.0,34.3691275167785,0
2017-07-19 06:00:00,15.9,15.9,15.9,92.0,14.6,1.7,4.5,75.2772781370503,0.0,0.0,998.3,21.4,61.0,34.4429530201342,0
2017-07-19 06:05:00,15.9,15.9,15.9,92.0,14.6,1.2,4.5,95.1141943663466,0.0,0.0,998.2,21.4,61.0,40.4832214765101,0
2017-07-19 06:10:00,15.9,15.9,15.9,92.0,14.6,1.0,3.1,82.0193905323816,0.0,0.0,998.2,21.4,61.6,36.1140939597315,0
2017-07-19 06:15:00,16.0,16.0,16.0,92.0,14.7,1.1,3.1,62.8305009430039,0.0,0.0,998.0,21.4,61.8,53.7114093959732,0.0838926174496644
2017-07-19 06:20:00,16.0,16.0,16.0,92.0,14.7,1.1,3.6,100.990741741726,0.0,0.0,997.9,21.5,61.0,52.8993288590604,0
2017-07-19 06:25:00,16.1,16.1,16.1,91.8,14.8,1.0,3.6,89.2745124189976,0.0,0.0,997.9,21.5,61.0,59.0805369127517,0
2017-07-19 06:30:00,16.1,16.1,16.1,91.0,14.7,1.2,3.1,68.6128782712,0.0,0.0,997.8,21.6,61.0,65.5266666666667,0.238
2017-07-19 06:35:00,16.2,16.2,16.2,91.0,14.7,1.8,4.0,56.1288065556264,0.0,0.0,997.7,21.6,61.0,53.5,0.122666666666667
2017-07-19 06:40:00,16.2,16.2,16.2,91.0,14.7,1.5,4.5,49.4773305790303,0.0,0.0,997.5,21.6,61.0,54.0201342281879,0.218120805369127
2017-07-19 06:45:00,16.2,16.2,16.2,91.0,14.7,1.3,4.5,58.8304823644228,0.0,0.0,997.4,21.6,61.0,42.2516556291391,0.0562913907284768
2017-07-19 06:50:00,16.3,16.3,16.3,91.0,14.8,1.1,3.6,112.943087825425,0.0,0.0,997.3,21.6,61.0,41.9867549668874,0
2017-07-19 06:55:00,16.3,16.3,16.3,91.0,14.8,1.8,4.0,83.033926957342,0.0,0.0,997.4,21.6,61.4,31.8322147651007,0
2017-07-19 07:00:00,16.3,16.3,16.3,91.0,14.8,1.3,4.0,55.4564707104868,0.0,0.0,997.4,21.6,61.0,42.6040268456376,0
2017-07-19 07:05:00,16.3,16.3,16.3,91.0,14.8,1.1,3.6,48.9154277039467,0.0,0.0,997.3,21.6,61.2,59.3557046979866,0.496644295302014
2017-07-19 07:10:00,16.3,16.3,16.3,91.0,14.8,2.2,4.9,87.7219974214643,0.0,0.0,997.3,21.6,61.0,64.006711409396,0.526174496644295
2017-07-19 07:15:00,16.3,16.3,16.3,90.1,14.7,1.7,4.9,87.5931837667761,0.0,0.0,997.3,21.6,61.0,116.530201342282,0.686577181208053
2017-07-19 07:20:00,16.4,16.4,16.4,90.2,14.7,1.1,4.0,45.4734502722888,0.0,0.0,997.3,21.7,61.0,146.234899328859,0.811409395973154
2017-07-19 07:25:00,16.5,16.5,16.5,90.0,14.8,1.5,4.5,77.6293677886673,0.0,0.0,997.1,21.7,61.0,183.939597315436,0.957718120805368
2017-07-19 07:30:00,16.6,16.6,16.6,89.7,14.9,1.9,4.5,101.461349725417,0.0,0.0,997.2,21.8,61.0,163.536912751678,0.881208053691274
2017-07-19 07:35:00,16.7,16.7,16.7,89.0,14.9,2.0,5.8,96.9535418698063,0.0,0.0,997.3,21.8,61.0,131.651006711409,0.785234899328859
2017-07-19 07:40:00,16.8,16.8,16.8,88.8,14.9,1.9,5.8,91.6264215966956,0.0,0.0,997.3,21.9,60.0,67.1476510067114,0.449664429530202
2017-07-19 07:45:00,16.8,16.8,16.8,88.1,14.8,1.9,4.5,96.2640016399483,0.0,0.0,997.2,21.9,60.0,86.1275167785235,0.711409395973155
2017-07-19 07:50:00,16.8,16.8,16.8,88.0,14.8,2.1,4.9,88.7063566787274,0.0,0.0,997.1,22.0,60.0,75.2953020134228,0.677852348993286
2017-07-19 07:55:00,16.7,16.7,16.7,88.0,14.7,2.0,4.9,80.4917551408259,0.0,0.0,997.2,22.0,60.0,58.489932885906,0.497986577181208
2017-07-19 08:00:00,16.7,16.7,16.7,88.3,14.7,1.4,4.5,77.8501905848719,0.0,0.0,997.0,22.0,60.0,57.2080536912752,0.512751677852349
2017-07-19 08:05:00,16.7,16.7,16.7,89.0,14.8,1.5,4.0,74.545550735116,0.0,0.0,997.0,22.0,60.0,60.3758389261745,0.700000000000002
2017-07-19 08:10:00,16.7,16.7,16.7,89.0,14.8,1.6,4.5,80.9986737286804,0.0,0.0,996.8,22.0,60.0,83.241610738255,0.84563758389262
2017-07-19 08:15:00,16.7,16.7,16.7,89.0,14.9,1.2,4.5,86.077434713283,0.0,0.0,996.8,22.1,59.2,122.308724832215,0.944966442953021
2017-07-19 08:20:00,16.8,16.8,16.8,88.8,14.9,1.8,4.9,89.3464166911275,0.0,0.0,996.9,22.3,59.0,148.228187919463,1.00604026845638
2017-07-19 08:25:00,16.9,16.9,16.9,88.0,14.9,1.9,4.9,87.3011764996873,0.0,0.0,996.8,22.4,58.2,101.362416107383,0.94765100671141
2017-07-19 08:30:00,16.9,16.9,16.9,88.0,14.9,1.9,4.9,94.3455393361794,0.0,0.0,996.9,22.6,58.0,73.2751677852349,0.81744966442953
2017-07-19 08:35:00,16.9,16.9,16.9,88.0,14.9,2.7,4.9,101.905726541509,0.0,0.0,996.9,22.8,57.8,85.0402684563758,0.868456375838926
2017-07-19 08:40:00,16.9,16.9,16.9,88.0,14.9,2.0,5.4,90.6321761083665,0.0,0.0,996.8,22.9,57.0,89.9597315436242,0.865771812080538
2017-07-19 08:45:00,16.9,16.9,16.9,88.0,14.9,1.4,5.4,95.0074801354402,0.0,0.0,996.8,23.0,57.0,54.6510067114094,0.292617449664429
2017-07-19 08:50:00,16.9,16.9,16.9,88.0,14.9,1.5,3.6,79.7449510835567,0.0,0.0,996.8,23.1,56.8,68.9463087248322,0.745637583892617
2017-07-19 08:55:00,16.9,16.9,16.9,88.0,14.9,1.1,3.1,97.4457394109303,0.0,0.0,996.7,23.2,56.0,88.18,0.981999999999999
2017-07-19 09:00:00,17.0,17.0,17.0,88.0,15.0,1.3,4.0,61.3849596304078,0.0,0.0,996.6,23.3,56.0,124.127516778524,1.07986577181208
2017-07-19 09:05:00,17.1,17.1,17.1,88.0,15.1,0.8,4.0,62.1881113182654,0.0,0.0,996.4,23.4,56.0,144.375838926175,1.25369127516779
2017-07-19 09:10:00,17.2,17.2,17.2,88.0,15.2,1.2,2.7,19.1396153397536,0.0,0.0,996.3,23.4,56.2,188.213333333333,1.35066666666667
2017-07-19 09:15:00,17.3,17.3,17.3,87.1,15.2,1.2,3.1,21.8865425424512,0.0,0.0,996.2,23.4,57.0,165.503311258278,1.41390728476821
2017-07-19 09:20:00,17.5,17.5,17.5,87.0,15.3,1.3,3.1,7.08165399099924,0.0,0.0,996.0,23.3,57.0,155.852348993289,1.36912751677853
2017-07-19 09:25:00,17.6,17.6,17.6,86.1,15.2,1.6,3.6,16.5728530581073,0.0,0.0,995.9,23.3,57.0,171.241610738255,1.48456375838926
2017-07-19 09:30:00,17.6,17.6,17.6,86.0,15.3,1.2,3.6,77.9800712065316,0.0,0.0,995.9,23.2,57.0,193.805369127517,1.55167785234899
2017-07-19 09:35:00,17.7,17.7,17.7,86.0,15.4,1.1,3.1,55.7843764909419,0.0,0.0,995.9,23.2,57.0,149.825503355705,1.33758389261745
2017-07-19 09:40:00,17.8,17.8,17.8,86.0,15.4,0.8,2.2,73.9121387027971,0.0,0.0,996.0,23.2,57.0,111.181208053691,1.06644295302013
2017-07-19 09:45:00,17.9,17.9,17.9,85.1,15.3,1.0,3.1,49.3090163140668,0.0,0.0,995.9,23.2,57.2,124.241610738255,1.16912751677852
2017-07-19 09:50:00,18.0,18.0,18.0,85.0,15.4,1.0,3.1,28.9474445201819,0.0,0.0,995.8,23.1,57.2,151.053333333333,1.29533333333333
2017-07-19 09:55:00,18.1,18.1,18.1,85.0,15.5,1.3,3.1,90.8599784005781,0.0,0.0,995.7,23.2,57.0,179.926174496644,1.58255033557047
2017-07-19 10:00:00,18.2,18.2,18.2,85.0,15.6,1.5,3.1,92.7283729288848,0.0,0.0,995.7,23.3,56.0,151.753333333333,1.406
2017-07-19 10:05:00,18.2,18.2,18.2,84.8,15.6,0.8,3.1,47.6820894693563,0.0,0.0,995.6,23.5,56.0,169.604026845638,1.46442953020134
2017-07-19 10:10:00,18.3,18.3,18.3,84.0,15.5,1.0,3.1,96.8426200768015,0.0,0.0,995.5,23.6,56.0,172.543624161074,1.59530201342282
2017-07-19 10:15:00,18.4,18.4,18.4,84.0,15.7,1.0,3.1,80.6760985083941,0.0,0.0,995.5,23.7,55.8,165.268456375839,1.48590604026846
2017-07-19 10:20:00,18.5,18.5,18.5,84.0,15.8,1.0,3.1,80.9608916831882,0.0,0.0,995.4,23.9,55.0,270.604026845638,2.02147651006711
2017-07-19 10:25:00,18.7,18.7,18.7,83.4,15.8,0.9,3.1,88.9969892629699,0.0,0.0,995.4,24.0,55.0,240.06711409396,1.97315436241611
2017-07-19 10:30:00,18.8,18.8,18.8,83.0,15.8,1.6,3.6,93.8768952943933,0.0,0.0,995.4,24.2,55.0,157.013422818792,1.48053691275168
2017-07-19 10:35:00,18.8,18.8,18.8,83.0,15.9,0.9,3.6,64.6096003250843,0.0,0.0,995.4,24.2,55.0,123.657718120805,1.29664429530201
2017-07-19 10:40:00,18.9,18.9,18.9,83.0,15.9,1.1,2.2,87.3634756593314,0.0,0.0,995.4,24.2,55.0,123.812080536913,1.30805369127517
2017-07-19 10:45:00,18.9,18.9,18.9,83.0,15.9,1.2,3.1,90.4050227121317,0.0,0.0,995.3,24.3,55.0,106.153333333333,1.24533333333333
2017-07-19 10:50:00,18.9,18.9,18.9,83.0,15.9,0.5,3.1,48.6653973472944,0.0,0.0,995.2,24.3,54.6,118.288590604027,1.30402684563759
2017-07-19 10:55:00,18.9,18.9,18.9,83.0,16.0,1.2,3.6,88.8042182928121,0.0,0.0,995.2,24.3,54.0,123.684563758389,1.3503355704698
2017-07-19 11:00:00,19.0,19.0,19.0,82.8,16.0,1.5,3.6,110.618269452087,0.0,0.0,995.1,24.4,54.0,144.221476510067,1.46845637583893
2017-07-19 11:05:00,19.0,19.0,19.0,82.2,15.9,1.7,3.1,98.8534168518292,0.0,0.0,994.9,24.4,54.0,127.433333333333,1.29333333333333
2017-07-19 11:10:00,19.1,19.1,19.1,82.2,15.9,1.3,3.6,110.364703932787,0.0,0.0,994.8,24.4,54.0,107.053333333333,1.09866666666667
2017-07-19 11:15:00,19.1,19.1,19.1,82.0,16.0,1.1,3.6,106.789182198136,0.0,0.0,994.8,24.5,54.0,80.7919463087248,0.919463087248322
2017-07-19 11:20:00,19.1,19.1,19.1,82.0,16.0,1.1,2.7,104.018877401002,0.0,0.0,994.7,24.5,54.0,88.1946308724832,1.0006711409396
2017-07-19 11:25:00,19.2,19.2,19.2,82.0,16.0,0.8,2.7,89.5952429834382,0.0,0.0,994.7,24.5,54.0,141.161073825503,1.33959731543624
2017-07-19 11:30:00,19.2,19.2,19.2,82.0,16.1,1.6,4.0,101.908973300231,0.0,0.0,994.6,24.5,54.0,197.087248322148,1.78120805369128
2017-07-19 11:35:00,19.3,19.3,19.3,81.8,16.1,2.0,4.0,103.994992691397,0.0,0.0,994.5,24.6,54.0,245.315436241611,2.11476510067114
2017-07-19 11:40:00,19.4,19.4,19.4,81.5,16.1,1.4,4.0,75.4497256076171,0.0,0.0,994.4,24.7,54.0,279.818791946309,2.25167785234899
2017-07-19 11:45:00,19.5,19.5,19.5,81.2,16.2,1.1,4.0,81.7414501414176,0.0,0.0,994.3,24.8,54.0,312.530201342282,2.4020134228188
2017-07-19 11:50:00,19.7,19.7,19.7,80.7,16.3,1.3,4.0,89.3754821040942,0.0,0.0,994.2,24.8,54.0,282.228187919463,2.26107382550335
2017-07-19 11:55:00,19.8,19.8,19.8,80.0,16.3,1.7,4.0,95.8583134052405,0.0,0.0,994.2,24.9,54.0,280.348993288591,2.36174496644295
2017-07-19 12:00:00,19.9,19.9,19.9,80.2,16.4,1.4,3.6,51.1101031862771,0.0,0.0,994.2,25.0,53.4,351.624161073825,2.74832214765101
2017-07-19 12:05:00,20.0,20.0,20.0,80.0,16.4,1.9,4.0,103.168985117117,0.0,0.0,994.2,25.1,53.0,454.771812080537,3.3758389261745
2017-07-19 12:10:00,20.3,20.3,20.3,79.6,16.7,1.5,4.0,89.4302082566459,0.0,0.0,994.1,25.2,53.0,514.526666666667,3.85333333333333
2017-07-19 12:15:00,20.5,20.5,20.5,78.8,16.7,1.3,3.6,45.019360625978,0.0,0.0,994.0,25.3,53.0,534.590604026846,4.52550335570469
2017-07-19 12:20:00,21.0,21.0,21.0,77.1,16.9,1.3,3.1,55.24240184084,0.0,0.0,993.8,25.4,53.2,615.766666666667,4.99799999999999
2017-07-19 12:25:00,21.5,21.5,21.5,75.5,17.0,1.7,4.0,108.836239448562,0.0,0.0,993.7,25.5,53.0,637.818791946309,4.88255033557048
2017-07-19 12:30:00,21.8,21.8,21.8,74.7,17.1,1.6,4.0,110.50336214181,0.0,0.0,993.6,25.5,53.0,419.476821192053,3.41655629139073
2017-07-19 12:35:00,21.9,21.9,21.9,74.0,17.1,1.8,4.0,94.4451469369711,0.0,0.0,993.6,25.5,53.0,283.697986577181,2.54899328859061
2017-07-19 12:40:00,21.6,21.6,21.6,74.6,16.9,2.0,4.5,109.036304966663,0.0,0.0,993.6,25.5,53.0,327.489932885906,2.73489932885906
2017-07-19 12:45:00,21.6,21.6,21.6,75.3,17.0,1.0,4.5,81.6584650033471,0.0,0.0,993.5,25.6,53.0,364.161073825503,2.98859060402685
2017-07-19 12:50:00,21.7,21.7,21.7,75.0,17.1,1.4,3.6,73.5881822815176,0.0,0.0,993.4,25.6,53.0,284.523489932886,2.5751677852349
2017-07-19 12:55:00,21.7,21.7,21.7,75.0,17.1,1.0,3.6,78.7620046336877,0.0,0.0,993.3,25.6,53.0,254.369127516779,2.39798657718121
2017-07-19 13:00:00,21.8,21.8,21.8,75.0,17.1,1.0,3.6,84.983120191544,0.0,0.0,993.3,25.7,53.0,331.51677852349,2.84697986577181
2017-07-19 13:05:00,22.0,22.0,22.0,74.5,17.3,1.2,3.1,76.4255527959668,0.0,0.0,993.2,25.7,53.0,397.346666666667,3.2
2017-07-19 13:10:00,22.4,22.4,22.4,73.2,17.4,1.5,3.6,92.0175140514708,0.0,0.0,993.1,25.8,53.0,392.275167785235,3.00872483221477
2017-07-19 13:15:00,22.6,22.6,22.6,72.1,17.3,1.6,3.6,103.322837187723,0.0,0.0,992.9,25.8,53.0,268.342281879195,2.3489932885906
2017-07-19 13:20:00,22.6,22.6,22.6,72.0,17.3,1.0,3.1,75.5359135939486,0.0,0.0,992.9,25.8,53.0,312.288590604027,2.74630872483222
2017-07-19 13:25:00,22.7,22.7,22.7,72.0,17.4,1.1,3.1,23.7277026174925,0.0,0.0,992.8,25.8,53.0,408.013333333333,3.572
2017-07-19 13:30:00,22.9,22.9,22.9,71.2,17.4,1.6,3.6,118.523738502624,0.0,0.0,992.7,25.9,53.0,478.18,4.03333333333332
2017-07-19 13:35:00,23.3,23.3,23.3,70.2,17.5,1.2,3.6,103.910400393886,0.0,0.0,992.5,25.9,53.0,612.509933774834,4.16026490066225
2017-07-19 13:40:00,23.7,23.7,23.7,69.2,17.7,1.2,3.1,66.3723684179111,0.0,0.0,992.4,26.0,53.0,444.865771812081,3.84429530201343
2017-07-19 13:45:00,24.0,24.0,24.0,68.7,17.8,1.0,3.1,42.7531836724917,0.0,0.0,992.4,26.0,53.0,375.751677852349,3.13020134228188
2017-07-19 13:50:00,24.1,24.1,24.1,67.6,17.7,1.3,3.1,86.1099306573204,0.0,0.0,992.3,26.1,52.8,383.422818791946,3.31476510067114
2017-07-19 13:55:00,24.1,24.1,24.1,67.9,17.8,1.1,3.1,81.6968522674314,0.0,0.0,992.1,26.1,52.0,625.597315436242,3.75838926174497
2017-07-19 14:00:00,24.4,24.4,24.4,67.3,17.9,1.5,3.6,32.1418436539415,0.0,0.0,992.0,26.2,53.2,525.812080536913,3.64697986577181
2017-07-19 14:05:00,24.3,24.3,24.3,67.1,17.8,1.5,3.6,359.389504835859,0.0,0.0,991.9,26.2,53.0,322.812080536913,2.74228187919463
2017-07-19 14:10:00,24.3,24.3,24.3,67.3,17.9,1.2,3.6,33.0724238719835,0.0,0.0,991.9,26.1,53.0,289.503355704698,2.45167785234899
2017-07-19 14:15:00,24.3,24.3,24.3,66.7,17.7,1.1,3.6,90.8674753849184,0.0,0.0,991.8,26.1,53.0,297.161073825503,2.23892617449664
2017-07-19 14:20:00,24.4,24.4,24.4,66.1,17.6,2.0,4.9,102.616001608618,0.0,0.0,991.7,26.2,53.0,264.013422818792,2.18322147651006
2017-07-19 14:25:00,24.4,24.4,24.4,66.0,17.6,1.0,4.9,86.0662886657917,0.0,0.0,991.7,26.2,53.0,299.879194630872,2.39395973154362
2017-07-19 14:30:00,24.5,24.5,24.5,66.0,17.7,1.5,3.6,94.0594804633112,0.0,0.0,991.6,26.2,53.0,350.557046979866,2.59664429530201
2017-07-19 14:35:00,24.6,24.6,24.6,65.1,17.6,2.1,4.5,101.374103526125,0.0,0.0,991.4,26.2,53.0,408.847682119205,2.85430463576159
2017-07-19 14:40:00,24.9,24.9,24.9,63.8,17.6,1.4,4.5,93.3320921304853,0.0,0.0,991.4,26.2,53.0,453.576158940397,3.02649006622516
2017-07-19 14:45:00,25.2,25.2,25.2,62.9,17.6,1.8,4.5,88.2731364721472,0.0,0.0,991.2,26.3,53.0,441.317880794702,3.06556291390728
2017-07-19 14:50:00,25.4,25.4,25.4,62.2,17.6,2.9,4.9,101.500023823563,0.0,0.0,991.2,26.3,52.4,391.852348993289,2.64496644295302
2017-07-19 14:55:00,25.2,25.2,25.2,62.0,17.4,2.4,5.4,106.163970874869,0.0,0.0,991.2,26.3,52.0,364.959731543624,2.38724832214765
2017-07-19 15:00:00,25.2,25.2,25.2,62.6,17.5,2.0,5.4,124.196052836023,0.0,0.0,991.1,26.3,52.0,283.885906040268,2.14563758389261
2017-07-19 15:05:00,25.1,25.1,25.1,63.0,17.5,2.4,5.8,112.703379002746,0.0,0.0,991.0,26.3,52.0,198.335570469799,1.61946308724832
2017-07-19 15:10:00,24.9,24.9,24.9,63.9,17.6,2.5,5.8,108.05968418733,0.0,0.0,991.1,26.3,52.0,153.751677852349,1.46778523489933
2017-07-19 15:15:00,24.6,24.6,24.6,64.5,17.5,3.5,7.2,118.178072671199,0.0,0.0,991.0,26.2,52.0,161.691275167785,1.31744966442953
2017-07-19 15:20:00,24.3,24.3,24.3,65.9,17.5,2.8,7.2,110.234620967956,0.0,0.0,991.0,26.2,52.6,118.187919463087,1.07785234899329
2017-07-19 15:25:00,24.1,24.1,24.1,67.6,17.7,3.0,5.4,108.086794691312,0.0,0.0,991.1,26.1,53.0,61.8053691275168,0.477852348993288
2017-07-19 15:30:00,23.9,23.9,23.9,68.9,17.8,2.2,4.9,114.331949755191,0.0,0.0,991.1,26.1,53.0,57.5570469798658,0.326174496644296
2017-07-19 15:35:00,23.7,23.7,23.7,69.0,17.7,2.6,4.9,113.572763585383,0.0,0.0,991.0,26.0,53.0,65.993288590604,0.784563758389264
2017-07-19 15:40:00,23.6,23.6,23.6,69.0,17.6,1.9,4.9,147.495049554115,0.0,0.0,991.0,26.0,53.0,63.3311258278146,0.752317880794703
2017-07-19 15:45:00,23.6,23.6,23.6,69.0,17.6,2.2,5.4,142.166177695645,0.0,0.0,991.0,25.9,53.0,58.2185430463576,0.411258278145696
2017-07-19 15:50:00,23.6,23.6,23.6,69.0,17.5,1.3,5.4,138.984927163994,0.0,0.0,991.0,25.9,53.8,65.635761589404,0.531788079470199
2017-07-19 15:55:00,23.6,23.6,23.6,69.0,17.5,2.6,6.7,144.855516921436,0.0,0.0,991.0,25.9,54.0,103.013422818792,0.889932885906041
2017-07-19 16:00:00,23.5,23.5,23.5,69.5,17.6,1.6,6.7,155.319867174831,0.0,0.0,991.0,25.9,54.0,152.161073825503,1.01610738255034
2017-07-19 16:05:00,23.5,23.5,23.5,69.2,17.5,2.2,6.7,144.457595127607,0.0,0.0,991.0,25.9,54.0,232.503355704698,1.34899328859061
2017-07-19 16:10:00,23.6,23.6,23.6,69.2,17.6,2.1,6.7,171.557634207313,0.0,0.0,990.9,25.9,54.0,259.865771812081,1.57046979865772
2017-07-19 16:15:00,23.7,23.7,23.7,69.0,17.7,1.9,4.9,161.493519543696,0.0,0.0,990.9,25.9,54.0,156.268456375839,1.29597315436242
2017-07-19 16:20:00,23.7,23.7,23.7,69.0,17.7,1.8,4.5,180.174921046918,0.0,0.0,991.0,26.0,54.0,99.0335570469799,0.908053691275168
2017-07-19 16:25:00,23.6,23.6,23.6,69.0,17.6,2.1,6.3,171.378927681707,0.0,0.0,991.0,25.9,54.0,57.2866666666667,0.348666666666667
2017-07-19 16:30:00,23.5,23.5,23.5,69.8,17.6,1.8,6.3,181.982489521959,0.0,0.0,991.0,25.9,54.4,92.2214765100671,0.830201342281879
2017-07-19 16:35:00,23.4,23.4,23.4,70.0,17.6,2.0,4.5,180.501382762367,0.0,0.0,990.9,25.9,55.0,98.9597315436242,0.797986577181207
2017-07-19 16:40:00,23.2,23.2,23.2,70.0,17.5,2.0,4.5,166.068560555678,0.0,0.0,990.9,25.8,55.0,110.56,0.812666666666667